Regional Weather Roundup
Issued by NWS

Home | Current Version | Previous Version | Graphics & Text | Print | Product List | Glossary On
Versions: 1 2 3 4 5 6 7 8 9 10 11 12 13 14 15 16 17 18 19 20 21 22 23 24 25 26 27 28 29 30 31 32 33 34 35 36 37 38 39 40 41 42 43 44 45 46 47 48 49 50
000
ASUS43 KFSD 230702
RWRSD

WEATHER ROUNDUP FOR SOUTH DAKOTA
NATIONAL WEATHER SERVICE SIOUX FALLS SD
200 AM CDT WED APR 23 2014

NOTE: "FAIR" INDICATES FEW OR NO CLOUDS BELOW 12,000 FEET WITH NO
SIGNIFICANT WEATHER AND/OR OBSTRUCTIONS TO VISIBILITY.


SDZ001>005-009-010-012>017-230800-
NORTHWEST AND NORTH CENTRAL SOUTH DAKOTA

CITY           SKY/WX    TMP DP  RH WIND       PRES   REMARKS
MOBRIDGE       CLOUDY    56  33  42 SE28G45   29.63F
$$

SDZ012>016-024>037-041>051-057-063-072>074-230800-
SOUTHWEST AND SOUTH CENTRAL SOUTH DAKOTA

CITY           SKY/WX    TMP DP  RH WIND       PRES   REMARKS
RAPID CTY ARPT CLOUDY    57  45  64 S12       29.53F
PIERRE         CLOUDY    58  33  39 SE28G43   29.60
CUSTER         MOCLDY    53  41  63 S9G17     29.61F
ELLSWORTH AFB  CLOUDY    58  46  63 S12       29.52F
PHILIP         CLOUDY    64  44  48 S20       29.52F
PINE RIDGE     CLOUDY    60  41  49 SE30G40   29.52F
WINNER         FAIR      60  32  34 SE15      29.74F
$$

SDZ004>011-016>023-039-040-230800-
NORTHEAST SOUTH DAKOTA

CITY           SKY/WX    TMP DP  RH WIND       PRES   REMARKS
ABERDEEN       CLOUDY    49  40  71 SE17G24   29.84S
WATERTOWN      CLOUDY    52  35  52 SE13G24   29.91R
SISSETON         N/A     49  37  63 S14       29.94S
$$

SDZ017-020-022-023-036>040-048>070-230800-
SOUTHEAST SOUTH DAKOTA

CITY           SKY/WX    TMP DP  RH WIND       PRES   REMARKS
SIOUX FALLS    PTCLDY    53  34  48 SE17G25   29.92F
HURON          CLOUDY    57  33  40 SE18G29   29.81F
CHAMBERLAIN      N/A     58  34  40 S26G37    29.75F
MITCHELL       CLOUDY    56  35  45 SE23      29.83F
YANKTON        CLOUDY    57  32  38 SE21G26   29.88F
$$

ABBREVIATIONS USED IN REMARKS
   TC - TEMPERATURE IN CELSIUS
  WCI - WIND CHILL INDEX
   HX - HEAT INDEX
  VSB - VISIBILITY




USA.gov is the U.S. government's official web portal to all federal, state and local government web resources and services.